GW4098 Weather Reports


Display with metric or nautical units.
time (UTC)temp
F
wind
direction
speed
MPH
gust
MPH
rain 1hr
in
rain 24hr
in
rain mn
in
humidity
%
barometer
mb
20260505124507 38 243 6.0 8.0 0.00 0.00 0.00 62 1013.8
20260505123004 38 271 4.0 6.0 0.00 0.00 0.00 59 1013.8
20260505121502 38 263 4.0 6.0 0.00 0.00 0.00 59 1013.8
20260505120002 38 40 2.0 9.0 0.00 0.00 0.00 57 1013.8
20260505114600 38 338 2.0 14.0 0.00 0.00 0.00 57 1013.7
20260505113107 39 360 7.0 17.0 0.00 0.00 0.00 54 1013.7
20260505111555 39 325 4.0 6.0 0.00 0.00 0.00 52 1013.6
20260505101549 39 5 1.0 2.0 0.00 0.00 0.00 52 1013.2
20260505100149 39 5 1.0 3.0 0.00 0.00 0.00 52 1013.1
20260505094549 39 337 2.0 4.0 0.00 0.00 0.00 51 1013.0
20260505093046 39 264 1.0 3.0 0.00 0.00 0.00 52 1012.8
20260505091601 39 264 2.0 4.0 0.00 0.00 0.00 52 1012.7
20260505090050 39 264 2.0 4.0 0.00 0.00 0.00 52 1012.6
20260505084600 39 264 2.0 4.0 0.00 0.00 0.00 53 1012.7
20260505083059 39 264 2.0 4.0 0.00 0.00 0.00 52 1012.7
20260505081555 39 245 2.0 4.0 0.00 0.00 0.00 52 1012.7
20260505080055 39 295 0.0 4.0 0.00 0.00 0.00 51 1012.7
20260505074541 39 160 1.0 5.0 0.00 0.00 0.00 51 1012.4
20260505073049 39 55 0.0 3.0 0.00 0.00 0.00 50 1012.6
20260505071545 39 55 2.0 4.0 0.00 0.00 0.00 51 1012.3
20260505070043 39 39 2.0 4.0 0.00 0.00 0.00 51 1012.3
20260505064536 39 71 1.0 3.0 0.00 0.00 0.00 52 1012.2
20260505063038 39 71 1.0 4.0 0.00 0.00 0.00 52 1012.1
20260505061531 39 76 3.0 5.0 0.00 0.00 0.00 50 1012.0
20260505060050 40 82 3.0 4.0 0.00 0.00 0.00 50 1011.9
20260505054523 39 56 2.0 3.0 0.00 0.00 0.00 50 1011.8
20260505053021 40 56 2.0 6.0 0.00 0.00 0.00 48 1011.7
20260505051519 40 57 4.0 6.0 0.00 0.00 0.00 47 1011.4
20260505041509 43 48 7.0 14.0 0.00 0.00 0.00 43 1011.1
20260505040007 43 54 10.0 13.0 0.00 0.00 0.00 42 1011.0
20260505034506 43 55 10.0 14.0 0.00 0.00 0.00 42 1010.9
20260505033004 43 47 8.0 11.0 0.00 0.00 0.00 40 1010.5
20260505031602 44 42 9.0 16.0 0.00 0.00 0.00 38 1010.2
20260505030119 45 36 10.0 17.0 0.00 0.00 0.00 35 1009.8
20260505024601 47 28 12.0 18.0 0.00 0.00 0.00 33 1009.6
20260505023055 48 18 9.0 15.0 0.00 0.00 0.00 27 1009.3
20260505021553 50 30 10.0 16.0 0.00 0.00 0.00 25 1008.9
20260505020051 51 22 11.0 18.0 0.00 0.00 0.00 24 1008.6
20260505014606 53 12 16.0 21.0 0.00 0.00 0.00 22 1008.4
20260505013052 53 338 11.0 18.0 0.00 0.00 0.00 20 1008.3
20260505011553 53 340 16.0 25.0 0.00 0.00 0.00 20 1008.1
20260505010058 54 349 17.0 22.0 0.00 0.00 0.00 20 1008.2
20260505004551 55 347 17.0 26.0 0.00 0.00 0.00 21 1008.2
20260505003056 55 327 19.0 25.0 0.00 0.00 0.00 22 1008.3
20260505001547 55 344 18.0 27.0 0.00 0.00 0.00 22 1008.1
20260505000051 55 360 20.0 25.0 0.00 0.00 0.00 23 1008.0
20260504234546 55 11 17.0 26.0 0.00 0.00 0.00 22 1008.1
20260504233046 55 337 17.0 27.0 0.00 0.00 0.00 25 1008.1
20260504231544 55 332 18.0 25.0 0.00 0.00 0.00 26 1008.0
20260504230043 53 329 17.0 27.0 0.00 0.00 0.00 27 1008.0
20260504224541 53 327 14.0 24.0 0.00 0.00 0.00 28 1007.9
20260504223056 54 360 16.0 21.0 0.00 0.00 0.00 28 1007.8
20260504221540 54 338 14.0 23.0 0.00 0.00 0.00 28 1007.8
20260504220040 54 360 16.0 26.0 0.00 0.00 0.00 28 1007.7
20260504214539 54 355 19.0 26.0 0.00 0.00 0.00 29 1007.7
20260504213040 55 350 19.0 26.0 0.00 0.00 0.00 29 1007.8
20260504211601 55 344 13.0 25.0 0.00 0.00 0.00 30 1007.7
20260504210043 54 326 15.0 23.0 0.00 0.00 0.00 30 1007.7
20260504204536 55 344 15.0 23.0 0.00 0.00 0.00 31 1007.6
20260504203035 56 311 17.0 25.0 0.00 0.00 0.00 30 1007.6
20260504201535 56 315 18.0 26.0 0.00 0.00 0.00 31 1007.6
20260504200035 55 299 13.0 27.0 0.00 0.00 0.00 31 1007.1
20260504194533 55 360 13.0 29.0 0.00 0.00 0.00 31 1007.2
20260504193032 57 290 15.0 25.0 0.00 0.00 0.00 32 1007.2
20260504191534 56 314 17.0 29.0 0.00 0.00 0.00 31 1007.1
20260504190029 55 325 18.0 23.0 0.00 0.00 0.00 32 1007.3
20260504184542 55 323 13.0 24.0 0.00 0.00 0.00 34 1007.3
20260504183028 55 340 16.0 21.0 0.00 0.00 0.00 35 1007.5
20260504181531 54 333 13.0 24.0 0.00 0.00 0.00 36 1007.5
20260504180027 54 336 16.0 22.0 0.00 0.00 0.00 35 1007.5
20260504174526 54 325 19.0 25.0 0.00 0.00 0.00 34 1007.5
20260504173028 55 341 15.0 24.0 0.00 0.00 0.00 35 1007.3
20260504171524 53 304 15.0 27.0 0.00 0.00 0.00 40 1007.4